Вернуться в каталог

STARLINK-36361

АктивенСвязьSSO
NORAD 67900·PAYLOAD·🇺🇸 United States

Запущен Feb 21, 2026 с Vandenberg Space Force Base

Loading…

Ближайшие Пролёты (ближайшие 24 часа)

TLE

СвежийSource: CelesTrak SupGP

Эпоха: Sep 14, 2026, 22:40 UTC

1 67900C 26035X   26257.94493056 -.00059471  00000+0 -18467-2 0  2572
2 67900  97.2848 189.9291 0001795  91.1927 328.6107 15.33457669    19

Отслеживайте STARLINK-36361 в реальном времени с AllMySat

Download on the App Store